Погода в Белом Яре

Россия / Томская область     57°29′41″N   88°45′44″E
темп.,
°C
ветер,
м/с
пор.,
м/с
влажн.,
%
обл.,
%
осадки,
мм/ч
давл.,
гПа
погр.,
м
28 февраля, вс
вс2801:00−25зюз399597 0.0 1035429
04:00−25юз3996100 0.1 1034445
07:00−24юз4995100 0.1 1036475
10:00−24юз4894100 0.1 1035484
13:00−22юз3792100 0.1 1035527
16:00−20юз3690100 0.1 1034617
19:00−23юз1297100 0.1 103320
22:00−26ююз1110054 0.0 103219
1 марта, пн
пн101:00−27вюв129927 0.0 103119
04:00−27в23990 0.0 102827
07:00−27в359924 0.0 102693
10:00−23в369694 0.0 1024224
13:00−18всв479197 0.0 1020332
16:00−16всв4890100 0.0 1018428
19:00−18всв41093100 0.0 1017422
22:00−19всв41094100 0.0 1016385
2 марта, вт
вт201:00−20всв41193100 0.0 1015357
04:00−21всв41194100 0.0 1014350
07:00−23св41193100 0.0 1016324
10:00−23всв489398 0.0 1018306
13:00−19всв478985 0.0 1019385
16:00−17всв378893 0.0 1019473
19:00−20всв389595 0.0 1020257
22:00−23в399669 0.0 1021224
3 марта, ср
ср301:00−25в379735 0.0 1021172
04:00−27в37970 0.0 1021185
07:00−27в39960 0.0 1022235
10:00−25в499412 0.0 1022270
13:00−19в488810 0.0 1022412
16:00−16в478724 0.0 1021507
19:00−19в399458 0.0 1023284
22:00−21в4109494 0.0 1023350
4 марта, чт
чт401:00−21вюв379694 0.1 1024278
04:00−22вюв369889 0.1 1024219
07:00−22вюв369893 0.2 1025203
10:00−19вюв359688 0.1 1025181
13:00−10ююв378993 0.1 1024712
16:00−8ю4886100 0.1 1022867
19:00−8ююв4994100 0.3 1021520
22:00−9ююв41093100 0.1 1020393